DELTA 1 DEB *, 15789

Orbit data source: Space-Track

DELTA 1 DEB *, 15789 is space debris in LEO originally from a launch on Tue, 06 Nov 1973 UTC launched from the Air Force Western Test Range (AFWTR). Debris objects in space refer to the collection of defunct objects orbiting the Earth. Examples of debris include non-operational satellites, rocket bodies, and fragments generated from explosions, collisions, or faulty payload assembly.

Loading next visibility...
Identifier
15789, 1973-086GT
Orbit
LEO
Country
Flag of USUS
Related business
Manufacturer
Unknown
Mission
Spacecraft
Bus & Motor
Unknown
Mass
Unknown
Launch date (UTC)
1973-11-06 (52 years ago)
Launch vehicle
Unknown
Launch site
Air Force Western Test Range (AFWTR)
Object type
Payload
Rocket body
Debris
Shape & HBR
Unknown shape, 0.1 m
Radar Cross Section
Small (<0.1 m²)

Expand to show TLE details & history
Last TLE update: 18 hours ago

TLE from 18 hours ago
0 DELTA 1 DEB *
1 15789U 73086GT  25291.93987977  .00002939  00000-0  12769-1 0  9991
2 15789 103.6844 356.7996 0493315 189.2468 347.4813 12.49327724616886
Epoch: 2025-10-18T22:33Z
TLE epoch observation values (Epoch: 2025-10-18T22:33:25.612Z)
Latitude
4.3643°
Longitude
171.83844°
Altitude
1,092.431 km
Speed
7.48 km/s
True Right ascension
11h 51m 26s
True Declination
4° 20' 22"
Sunlit
Object was in daylight at epoch
Visualization orbit readout
Latitude
Unknown
Longitude
Unknown
Altitude
Unknown
Speed
Unknown
Apparent Right ascension
Unknown
Apparent Declination
Unknown
Sunlit
N/A
Visualization observer readout
Local Sidereal Time
10:59:08
Azimuth
Unknown
Elevation
Unknown
Doppler factor
Unknown
Orbital elements
Apogee altitude
1,851.882 km
Perigee altitude
1,078.057 km
Semi-major axis
7,843.106 km
Eccentricity
0.04933
Inclination
103.6844°
RAAN
356.7996°
Arg. of periapsis
189.2468°
True anomaly
346.17782°
Mean anomaly
347.4813°
Eccentric anomaly
346.83768°
Mean motion
3.12472 °/min
Orbital period
115.21 mins
BSTAR
0.012769
Loading maneuver chart data...
Computing Atmospheric mass density...
Loading historical data...
Loading historical data...
Loading historical data...
Loading historical data...
Loading historical data...
Loading historical data...
Loading historical data...

Documentation

Showing up to 5 results
|